Location: Tamazert
(32.6352°N, 5.2072°W)
Time: 22:04:08
(UTC+00:00)

Cosmos 1269 Rocket - Pass Details

Date: 22 May 2022
Orbit: 773 x 778 km, 74.1° (Epoch: 24 June)

Event Time Altitude Azimuth Distance (km) Brightness Sun altitude
Rises 03:05:30 0° 343° (NNW) 3,252 7.6 -23.5°
Reaches altitude 10° 03:07:53 10° 343° (NNW) 2,321 6.8 -23.2°
Maximum altitude 03:13:10 89° 264° (W) 777 3.9 -22.4°
Enters shadow 03:16:07 27° 165° (SSE) 1,447 5.1 -22.0°
